• In Switzerland
  • List of Countries
  • For 7 days
  • Water Temperature
  • Satellite Maps
  • Weather Map
  • Weather Widgets
  • user-avatar
    Login

    Hourly Weather Kainchak

    Today, 20 September, Thursday

    Time Temperature Precipitation Wind Pressure Humidity
    00:00 +7°C° 0.1 mm 3 mps 723 mmHg 94%
    01:00 +7°C° 0.1 mm 3 mps 723 mmHg 94%
    02:00 +6°C° 0.4 mm 4 mps 723 mmHg 94%
    03:00 +6°C° 0.4 mm 4 mps 723 mmHg 94%
    04:00 +6°C° 0 mm 4 mps 723 mmHg 95%
    05:00 +6°C° 0.3 mm 4 mps 723 mmHg 94%
    06:00 +6°C° 0.3 mm 4 mps 723 mmHg 94%
    07:00 +6°C° 0.3 mm 4 mps 723 mmHg 94%
    08:00 +6°C° 0.2 mm 4 mps 723 mmHg 94%
    09:00 +6°C° 0.2 mm 4 mps 724 mmHg 93%
    10:00 +8°C° 0 mm 3 mps 724 mmHg 93%
    11:00 +8°C° 0.2 mm 3 mps 724 mmHg 93%
    12:00 +8°C° 0.2 mm 3 mps 725 mmHg 92%
    13:00 +8°C° 0.2 mm 3 mps 725 mmHg 92%
    14:00 +8°C° 0.2 mm 3 mps 725 mmHg 93%
    15:00 +8°C° 0.2 mm 3 mps 726 mmHg 93%
    16:00 +8°C° 0 mm 3 mps 726 mmHg 94%
    17:00 +8°C° 0.3 mm 3 mps 726 mmHg 94%
    18:00 +8°C° 0.3 mm 3 mps 726 mmHg 94%
    19:00 +8°C° 0.3 mm 3 mps 726 mmHg 95%
    20:00 +8°C° 0.1 mm 3 mps 727 mmHg 95%
    21:00 +8°C° 0.1 mm 3 mps 727 mmHg 95%
    22:00 +8°C° 0.1 mm 3 mps 727 mmHg 96%
    23:00 +8°C° 0.1 mm 3 mps 727 mmHg 96%

    Tomorrow, 21 September, Friday

    Time Temperature Precipitation Wind Pressure Humidity
    00:00 +7°C° 0.1 mm 3 mps 727 mmHg 96%
    01:00 +7°C° 0.1 mm 2 mps 726 mmHg 97%
    02:00 +7°C° 0.1 mm 2 mps 727 mmHg 97%
    03:00 +7°C° 0.1 mm 3 mps 727 mmHg 97%
    04:00 +7°C° 0.1 mm 3 mps 727 mmHg 97%
    05:00 +7°C° 0.1 mm 3 mps 727 mmHg 96%
    06:00 +7°C° 0.1 mm 3 mps 728 mmHg 96%
    07:00 +8°C° 0.1 mm 3 mps 728 mmHg 96%
    08:00 +8°C° 0.1 mm 3 mps 728 mmHg 95%
    09:00 +8°C° 0.1 mm 3 mps 729 mmHg 94%
    10:00 +9°C° 0.1 mm 3 mps 729 mmHg 93%
    11:00 +9°C° 0 mm 3 mps 729 mmHg 92%
    12:00 +10°C° 0 mm 4 mps 730 mmHg 90%
    13:00 +10°C° 0 mm 4 mps 730 mmHg 89%
    14:00 +10°C° 0 mm 4 mps 730 mmHg 89%
    15:00 +10°C° 0 mm 3 mps 731 mmHg 89%
    16:00 +10°C° 0 mm 3 mps 731 mmHg 89%
    17:00 +9°C° 0 mm 3 mps 732 mmHg 90%
    18:00 +9°C° 0 mm 3 mps 732 mmHg 91%
    19:00 +9°C° 0 mm 3 mps 733 mmHg 92%
    20:00 +8°C° 0 mm 2 mps 733 mmHg 93%
    21:00 +8°C° 0 mm 2 mps 733 mmHg 93%
    22:00 +8°C° 0 mm 2 mps 734 mmHg 94%
    23:00 +8°C° 0 mm 2 mps 734 mmHg 94%

    Day after tomorrow, 22 September, Saturday

    Time Temperature Precipitation Wind Pressure Humidity
    00:00 +8°C° 0 mm 2 mps 734 mmHg 95%
    01:00 +8°C° 0 mm 2 mps 734 mmHg 95%
    02:00 +8°C° 0 mm 2 mps 735 mmHg 95%
    03:00 +8°C° 0 mm 2 mps 735 mmHg 96%
    04:00 +7°C° 0 mm 2 mps 735 mmHg 96%
    05:00 +7°C° 0 mm 2 mps 736 mmHg 96%
    06:00 +7°C° 0 mm 1 mps 736 mmHg 96%
    07:00 +7°C° 0 mm 1 mps 736 mmHg 96%
    08:00 +8°C° 0 mm 2 mps 736 mmHg 89%
    09:00 +9°C° 0 mm 2 mps 737 mmHg 82%
    10:00 +12°C° 0 mm 2 mps 737 mmHg 75%
    11:00 +13°C° 0 mm 2 mps 737 mmHg 71%
    12:00 +13°C° 0 mm 3 mps 737 mmHg 68%
    13:00 +14°C° 0 mm 3 mps 737 mmHg 65%
    14:00 +14°C° 0 mm 3 mps 737 mmHg 70%
    15:00 +14°C° 0 mm 3 mps 737 mmHg 75%
    16:00 +14°C° 0 mm 3 mps 737 mmHg 80%
    17:00 +14°C° 0 mm 2 mps 737 mmHg 85%
    18:00 +13°C° 0 mm 2 mps 737 mmHg 90%
    19:00 +13°C° 0 mm 1 mps 737 mmHg 95%
    20:00 +13°C° 0 mm 1 mps 737 mmHg 96%
    21:00 +13°C° 0 mm 1 mps 737 mmHg 96%
    22:00 +12°C° 0 mm 1 mps 737 mmHg 97%
    23:00 +12°C° 0 mm 1 mps 737 mmHg 97%

    23 September, Sunday

    Time Temperature Precipitation Wind Pressure Humidity
    00:00 +12°C° 0 mm 1 mps 737 mmHg 97%
    01:00 +12°C° 0 mm 1 mps 737 mmHg 98%
    02:00 +12°C° 0 mm 1 mps 737 mmHg 98%
    03:00 +12°C° 0 mm 1 mps 738 mmHg 98%
    04:00 +12°C° 0 mm 1 mps 738 mmHg 98%
    05:00 +12°C° 0 mm 1 mps 738 mmHg 98%
    06:00 +12°C° 0 mm 1 mps 738 mmHg 98%
    07:00 +13°C° 0 mm 1 mps 738 mmHg 98%
    08:00 +14°C° 0 mm 1 mps 738 mmHg 96%
    09:00 +14°C° 0 mm 1 mps 738 mmHg 94%
    10:00 +15°C° 0 mm 2 mps 738 mmHg 91%
    11:00 +16°C° 0 mm 2 mps 738 mmHg 89%
    12:00 +17°C° 0 mm 2 mps 738 mmHg 86%
    13:00 +17°C° 0 mm 2 mps 738 mmHg 84%
    14:00 +18°C° 0 mm 2 mps 738 mmHg 83%
    15:00 +18°C° 0 mm 2 mps 738 mmHg 83%
    16:00 +19°C° 0 mm 1 mps 738 mmHg 83%
    17:00 +17°C° 0 mm 2 mps 738 mmHg 86%
    18:00 +16°C° 0 mm 2 mps 738 mmHg 90%
    19:00 +15°C° 0 mm 2 mps 738 mmHg 94%
    20:00 +14°C° 0 mm 2 mps 738 mmHg 94%
    21:00 +14°C° 0 mm 2 mps 737 mmHg 95%
    22:00 +13°C° 0 mm 2 mps 737 mmHg 96%
    23:00 +13°C° 0 mm 2 mps 737 mmHg 96%

    24 September, Monday

    Time Temperature Precipitation Wind Pressure Humidity
    00:00 +13°C° 0 mm 2 mps 737 mmHg 96%
    01:00 +12°C° 0 mm 2 mps 737 mmHg 96%
    02:00 +12°C° 0 mm 2 mps 737 mmHg 96%
    03:00 +12°C° 0 mm 2 mps 736 mmHg 96%
    04:00 +10°C° 0 mm 2 mps 736 mmHg 96%
    05:00 +10°C° 0 mm 2 mps 736 mmHg 96%
    06:00 +10°C° 0 mm 2 mps 736 mmHg 95%
    07:00 +12°C° 0 mm 2 mps 736 mmHg 95%
    08:00 +13°C° 0 mm 2 mps 736 mmHg 88%
    09:00 +15°C° 0 mm 2 mps 736 mmHg 82%
    10:00 +17°C° 0 mm 3 mps 736 mmHg 75%
    11:00 +18°C° 0 mm 3 mps 735 mmHg 71%
    12:00 +19°C° 0 mm 3 mps 735 mmHg 66%
    13:00 +20°C° 0 mm 4 mps 735 mmHg 62%
    14:00 +20°C° 0 mm 3 mps 735 mmHg 62%
    15:00 +20°C° 0 mm 3 mps 735 mmHg 63%
    16:00 +20°C° 0 mm 3 mps 735 mmHg 64%
    17:00 +18°C° 0 mm 3 mps 735 mmHg 71%
    18:00 +16°C° 0 mm 2 mps 734 mmHg 78%
    19:00 +15°C° 0 mm 2 mps 734 mmHg 84%
    20:00 +14°C° 0 mm 2 mps 734 mmHg 85%
    21:00 +14°C° 0 mm 2 mps 734 mmHg 86%
    22:00 +13°C° 0 mm 2 mps 734 mmHg 87%
    23:00 +13°C° 0 mm 2 mps 734 mmHg 87%

    25 September, Tuesday

    Time Temperature Precipitation Wind Pressure Humidity
    00:00 +13°C° 0 mm 2 mps 734 mmHg 87%
    01:00 +13°C° 0 mm 2 mps 734 mmHg 87%
    02:00 +12°C° 0 mm 2 mps 734 mmHg 87%
    03:00 +12°C° 0 mm 2 mps 734 mmHg 87%
    04:00 +10°C° 0 mm 2 mps 734 mmHg 87%
    05:00 +10°C° 0 mm 2 mps 734 mmHg 86%
    06:00 +12°C° 0 mm 2 mps 734 mmHg 85%
    07:00 +12°C° 0 mm 2 mps 734 mmHg 83%
    08:00 +13°C° 0 mm 3 mps 734 mmHg 74%
    09:00 +16°C° 0 mm 3 mps 734 mmHg 65%
    10:00 +18°C° 0 mm 4 mps 733 mmHg 55%
    11:00 +19°C° 0 mm 4 mps 733 mmHg 52%
    12:00 +20°C° 0 mm 5 mps 733 mmHg 49%
    13:00 +21°C° 0 mm 5 mps 733 mmHg 46%
    14:00 +20°C° 0 mm 4 mps 733 mmHg 50%
    15:00 +20°C° 0 mm 3 mps 733 mmHg 53%
    16:00 +20°C° 0 mm 3 mps 733 mmHg 57%
    17:00 +18°C° 0 mm 3 mps 733 mmHg 62%
    18:00 +17°C° 0 mm 3 mps 732 mmHg 67%
    19:00 +14°C° 0 mm 3 mps 732 mmHg 73%
    20:00 +13°C° 0 mm 3 mps 732 mmHg 76%
    21:00 +13°C° 0 mm 3 mps 732 mmHg 80%
    22:00 +12°C° 0 mm 3 mps 732 mmHg 83%
    23:00 +11°C° 0 mm 3 mps 732 mmHg 83%
    Show more